Location: Haram ta Haram Freeway
(35.0583°N, 51.4202°E)
Time: 12:23:17
(UTC+04:30)

ISS - Pass Details

Date: 12 July 2022
Orbit: 412 x 420 km, 51.6° (Epoch: 15 August)

Event Time Altitude Azimuth Distance (km) Brightness Sun altitude
Rises 21:45:29 0° 223° (SW) 2,328 0.1 -15.2°
Reaches altitude 10° 21:47:34 10° 222° (SW) 1,471 -1.0 -15.5°
Maximum altitude 21:50:52 77° 136° (SE) 425 -4.0 -16.0°
Drops below altitude 10° 21:54:11 10° 50° (NE) 1,484 -1.1 -16.5°
Sets 21:56:17 0° 49° (NE) 2,351 0.0 -16.8°
